Regional Weather Roundup
Issued by NWS

Home | Current Version | Previous Version | Text Only | Print | Product List | Glossary Off
Versions: 1 2 3 4 5 6 7 8 9 10 11 12 13 14 15 16 17 18 19 20 21 22 23 24 25 26 27 28 29 30 31 32 33 34 35 36 37 38 39 40 41 42 43 44 45 46 47 48 49 50

000
ASUS44 KMEG 030510
RWRTN
TENNESSEE HOURLY STATE WEATHER ROUNDUP
NATIONAL WEATHER SERVICE MEMPHIS TN
1200 AM CDT TUE MAY 03 2016

TNZ002-004-019-021-049-052-054-088>092-030600-
WEST TENNESSEE

CITY           SKY/WX    TMP DP  RH WIND       PRES   REMARKS
MEMPHIS INTL   CLOUDY    62  54  74 NW6       29.99F
NWS MEMPHIS      N/A     58 N/A N/A MISG        N/A
JACKSON        CLOUDY    59  56  89 CALM      29.98F
DYERSBURG      CLOUDY    57  52  82 N10         N/A
UNION CITY     CLOUDY    57  52  82 N7        30.00S
LEXINGTON      CLOUDY    57  57 100 NW5       29.97F
$$

TNZ008-025-027-028-033-062-065-066-030600-
NORTH MIDDLE TENNESSEE

CITY           SKY/WX    TMP DP  RH WIND       PRES   REMARKS
NASHVILLE      LGT RAIN  60  56  86 NW7       29.96F
CLARKSVILLE    CLOUDY    57  50  77 N8        29.98F
SMYRNA         CLOUDY    59  58  96 NW6       29.97F
COOKEVILLE     CLOUDY    59  59 100 VRB5      29.94S
CROSSVILLE     CLOUDY    61  57  87 W3        29.95F
$$

TNZ061-075-076-078-094-096-097-030600-
SOUTH MIDDLE TENNESSEE

CITY           SKY/WX    TMP DP  RH WIND       PRES   REMARKS
FAYETTEVILLE   CLOUDY    61  59  94 N9G15     29.94F
TULLAHOMA      CLOUDY    57  57 100 NW6       29.95F
WINCHESTER     CLOUDY    63  61  94 VRB6      29.94F
MCMINNVILLE    CLOUDY    61  61 100 NW7       29.94F
COLUMBIA       CLOUDY   N/A N/A N/A CALM      29.95S
SHELBYVILLE    CLOUDY    61  61 100 N5        29.96F
$$

TNZ017-018-042-046-047-030600-
NORTHEAST TENNESSEE

CITY           SKY/WX    TMP DP  RH WIND       PRES   REMARKS
TRI CITIES     CLOUDY    59  57  93 CALM      29.91F
$$

TNZ012-013-036-069-073-074-030600-
CENTRAL EAST TENNESSEE

CITY           SKY/WX    TMP DP  RH WIND       PRES   REMARKS
KNOXVILLE      LGT RAIN  62  60  93 NW6       29.91S
OAK RIDGE      CLOUDY    62  59  90 CALM      29.93F
GATLINBURG     CLOUDY    61  61 100 NW3       29.90S
MORRISTOWN     CLOUDY    61  59  94 N3        29.91S
$$

TNZ083-085-099-030600-
SOUTHEAST TENNESSEE

CITY           SKY/WX    TMP DP  RH WIND       PRES   REMARKS
CHATTANOOGA    LGT RAIN  65  63  93 CALM      29.91F FOG
$$

SKY/WX REPORTED AS FAIR MEANS FEW OR NO CLOUDS BELOW
12 THOUSAND FEET.




USA.gov is the U.S. government's official web portal to all federal, state and local government web resources and services.